Location: Aalen
(48.8330°N, 10.1000°E)
Time: 17:16:38
(UTC+01:00)

AO-73 - Visible Passes

Search period start: 20 March 2023 00:00
Search period end: 30 March 2023 01:00
Orbit: 574 x 648 km, 97.7° (Epoch: 19 March)

Date Brightness Start Highest point End Pass type
(mag) Time Alt. Az. Time Alt. Az. Time Alt. Az.
20 Mar ? 02:52:13 10° NE 02:54:55 16° E 02:55:23 16° E visible
20 Mar ? 04:27:04 10° N 04:31:17 57° WNW 04:32:23 42° SW visible
21 Mar ? 03:06:21 10° NE 03:09:43 22° E 03:10:18 22° ESE visible
21 Mar ? 04:41:51 10° N 04:45:51 40° WNW 04:47:18 30° WSW visible
22 Mar ? 03:20:40 10° NNE 03:24:28 30° E 03:25:13 28° ESE visible
22 Mar ? 04:56:40 10° N 05:00:23 30° WNW 05:02:13 21° WSW visible
23 Mar ? 03:35:06 10° NNE 03:39:10 42° E 03:40:08 36° SE visible
23 Mar ? 05:11:35 10° NNW 05:14:53 22° WNW 05:17:07 15° WSW visible
24 Mar ? 03:49:36 10° NNE 03:53:49 60° E 03:55:01 41° SSE visible
24 Mar ? 05:26:36 10° NNW 05:29:20 17° WNW 05:32:00 10° W visible
25 Mar ? 04:04:10 10° NNE 04:08:25 86° ESE 04:09:54 40° S visible
25 Mar ? 05:41:54 10° NNW 05:43:44 13° WNW 05:45:34 10° W visible
26 Mar ? 03:44:26 10° ENE 03:46:31 13° E 03:47:46 12° ESE visible
26 Mar ? 05:18:47 10° N 05:23:00 68° WNW 05:24:46 33° SSW visible
27 Mar ? 03:58:18 10° NE 04:01:15 18° E 04:02:38 16° ESE visible
27 Mar ? 05:33:27 10° N 05:37:31 48° WNW 05:39:37 25° SW visible
28 Mar ? 04:12:27 10° NE 04:15:57 25° E 04:17:28 20° SE visible
28 Mar ? 05:48:10 10° N 05:51:59 34° WNW 05:54:27 18° WSW visible
29 Mar ? 04:26:44 10° NNE 04:30:35 35° E 04:32:18 24° SE visible
29 Mar ? 06:02:57 10° N 06:06:25 26° WNW 06:09:17 13° WSW visible
